Location: Peebles
(55.6412°N, 3.1714°W)
Time: 12:46:08
(UTC+00:00)

CUTE-I - Pass Details

Date: 12 December 2023
Orbit: 807 x 823 km, 98.7° (Epoch: 24 February)

Event Time Altitude Azimuth Distance (km) Brightness Sun altitude
Rises 05:57:10 0° 20° (NNE) 3,368 ? -20.1°
Reaches altitude 10° 05:59:44 10° 29° (NNE) 2,433 ? -19.7°
Maximum altitude 06:04:40 36° 95° (E) 1,296 ? -19.1°
Drops below altitude 10° 06:09:34 10° 161° (SSE) 2,420 ? -18.4°
Sets 06:12:06 0° 170° (S) 3,349 ? -18.1°
